PICSAT

导读

PICSAT是法国于2018年1月12日发射的皮卫星(Picosat),属于质量不超过1千克的微型卫星。这类卫星成本低、体积小,一般用于技术验证、科学实验与航天教育。作为微型卫星技术探索的典型案例,PICSAT承担了相关航天技术的在轨验证任务,推动了小卫星技术在欧洲航天领域的发展,为后续微型卫星的研发积累了宝贵的在轨数据和实践经验。

基本信息
目录编号:
43132
目录名称:
PICSAT
国际标识:
2018-004X
轨道中心:
EARTH
卫星名称:
PICSAT
卫星全名:
--
卫星状态:
已陨落 最后检测时间 2023-10-03
发射日期:
2018-01-12 UTC
国别 :
法国 (FR)
星等 :
--
轨道信息
数据来源 国际轨道数据
星历时间: 2023-10-02T13:45:38+0800
轨道信息已过期1016天
半长轴: 6522.542km
偏心率: 0.0010678
轨道倾角: 97.290°
近地点辐角 260.985°
升交点赤经 3.767°
平近点角 99.025°
近地点: 137.442km
远地点: 151.372km
周期: 87.375分钟
每日圈数: 16.480768
详细信息
使用方式:
暂无